COSMOS 1867 COOLANT

Satellite information

Favourite Embed

Satellite Type and Status

DEBRISIN ORBIT

Key statistics

Satellite COSMOS 1867 COOLANT at a glance.

Uptime

13816

Days in orbit

Revolutions

≈ 14.3

Per day

Orbit

LEO

Low Earth Orbit

Inclination

65.0

Latest

Satellite identification and parameters

Extended collection of information and parameters for COSMOS 1867 COOLANT.

Object identification

Identified? True

Debris? False

Object name: COSMOS 1867 COOLANT

International designator: 1987-060U

Object number (NORAD): 39657

Object ID (CCSDS): 39657

Country: COMMONWEALTH OF INDEPENDENT STATES (CIS)

Current information (Y/N): Y

RCS size: SMALL

Orbital parameters

Period: 100.45 minutes

Inclination: 65.008 deg

SMA: 7158.024 km

Apoapsis: 792.488 km

Periapsis: 767.29 km

RAAN: 71.9174 deg

Eccentricy: 0.0017601

Argument of periapsis: 257.8799 deg

Mean anomaly: 102.0315 deg

Mean motion: 14.3355055 rev/day

Mean motion (dot): 0.0000056 rev/day2

B* drag term: 0.00023806 1/REarth

Two-line elements (TLE)

Creation date: May 7, 2025, 3:14 a.m.

Reference frame: TEME

Reference center: EARTH

Epoch: May 6, 2025, 1:46 p.m. UTC

TLE line 0: 0 COSMOS 1867 COOLANT

TLE line 1: 1 39657U 87060U 25126.57412394 .00000560 00000-0 23806-3 0 9995

TLE line 2: 2 39657 65.0080 71.9174 0017601 257.8799 102.0315 14.33550550578386

Live tracking on map

Real-time ground track for satellite COSMOS 1867 COOLANT.

In-orbit conjunctions

A list of the most updated potential collisions computed for object COSMOS 1867 COOLANT.

Target Orbit TCA Probability of collision Miss distance Type
CZ-6A DEB LEO 2024-11-26 07:58:30 0.0001708551 718.0 (m) DEBRIS
CZ-6A DEB SSO 2024-11-02 05:51:52 0.0001228348 127.0 (m) DEBRIS
COSMOS 2056 LEO 2024-07-05 14:36:01 0.0001231452 108.0 (m) PAYLOAD

Associated space launch

Nuclear-powered magnetospheric research satellite

COSMOS 1867 COOLANT was lifted into orbit during the mission ‘Tsiklon-2 | Plasma-A 2’, on board a Tsiklon-2 space rocket.

The launch took place on July 10, 1987, 3:35 p.m. from 90.

For more information about the launch, click the button.

Launch to space Tsiklon-2 | Plasma-A 2
Tsiklon-2 | Plasma-A 2

Agency: N/A

Status: Launch Successful

Launch date: July 10, 1987, 3:35 p.m. UTC

Rocket: Tsiklon-2

Launch pad: 90

Location: Baikonur Cosmodrome, Republic of Kazakhstan

...

Latest news about this satellite

There are no fresh news available about this satellite. Check back as we update our databases every day.


Newsletter sign-up

Weekly statistics, charts and insights to help you stay on top of the space industry.